Location: Cisewo
(53.3833°N, 14.9000°E)
Time: 11:31:44
(UTC+00:00)

SJ 16-02 - Pass Details

Date: 18 April 2021
Orbit: 605 x 617 km, 75.0° (Epoch: 15 May)

Event Time Altitude Azimuth Distance (km) Brightness Sun altitude
Exits shadow 23:56:19 18° 106° (ESE) 1,537 3.3 -24.3°
Maximum altitude 23:56:52 18° 97° (E) 1,520 3.4 -24.3°
Drops below altitude 10° 23:59:52 10° 54° (NE) 1,987 4.6 -24.2°
Sets 00:02:42 0° 36° (NE) 2,900 6.0 -24.0°
